www.pogodaiklimat.ru

Погода и климат >> Архив погоды >> Таджикистан >> Пьяндж


ПОГОДА в Пьяндже

  • Прогноз погоды в Пьяндже
  • Монитор погоды в Пьяндже

АРХИВ ПОГОДЫ в Пьяндже

Время (UTC), дата Ветер
(напр.,м/с)
 
Видим.   Явления Облачность Т
(С)
Тd
(С)
f
(%)
Тe
(С)
Тes
(С)
Комфортность P
(гПа)
Po
(гПа)
Тmin
(С)
Tmax
(С)
R
(мм)
R24
(мм)
S
(см)
21 12.07 ЮВ 1 н/о ясно +27.3 +18.1 57 +32 +32 очень
душно
997.8 957.4
00 13.07 З 1 20 км ясно +24.0 +17.3 66 +28 +28 душно 999.4 959.3
03 13.07 СЗ 1 20 км ясно +28.1 +20.4 63 +35 +42 очень
душно
999.2 958.9 +21.6
06 13.07 СЗ 1 20 км ясно +37.5 +18.2 32 +41 +63 опасность
перегрева
999.0 959.9 +21.6
09 13.07 З 1 20 км ясно +40.2 +19.6 31 +45 +66 опасность
перегрева
996.5 957.8
12 13.07 СЗ 1 20 км ясно +38.4 +19.9 34 +44 +50 опасность
перегрева
996.0 957.6
15 13.07 СВ 1 20 км ясно +32.2 +23.1 59 +43 +43 опасность
перегрева
996.5 956.8 +41.5
18 13.07 СВ 1 н/о ясно +29.4 +20.8 60 +37 +37 очень
душно
997.5 957.4 +41.5
21 13.07 В 1 н/о ясно +26.1 +19.1 65 +31 +31 очень
душно
998.5 958.0
00 14.07 СЗ 1 20 км ясно +23.6 +17.8 70 +28 +28 душно 999.3 959.2
03 14.07 ЮЗ 1 20 км ясно +31.3 +21.9 57 +40 +47 очень
душно
998.0 958.2 +22.5
06 14.07 ЮВ 1 20 км ясно +37.6 +17.7 31 +41 +63 опасность
перегрева
997.4 958.4 +22.5
09 14.07 ЮВ 1 20 км ясно +41.0 +19.0 28 +45 +66 опасность
перегрева
995.7 957.1
12 14.07 СВ 1 20 км ясно +39.8 +23.0 38 +49 +55 опасность
перегрева
995.2 957.1
15 14.07 ЮЗ 1 20 км 4/0
[Ac lent]
+33.0 +18.6 43 +38 +38 очень
душно
996.3 956.7 +41.7
18 14.07 штиль 0 н/о ясно +29.8 +18.9 52 +35 +35 очень
душно
996.7 956.7 +41.7
21 14.07 В 1 н/о ясно +27.6 +17.8 55 +32 +32 очень
душно
997.8 957.5
00 15.07 ЮЗ 1 10 км ясно +24.5 +16.2 60 +28 +28 душно 998.9 959.0
03 15.07 ЮЗ 1 20 км 3/3 600 м
[Cu med, cong]
+28.6 +20.8 63 +36 +41 очень
душно
998.6 958.4 +22.9
06 15.07 З 1 20 км 3/3 600 м
[Cu med, cong]
+35.8 +19.6 39 +41 +56 опасность
перегрева
998.0 958.7 +22.9
09 15.07 З 1 20 км 3/3 600 м
[Cb calv]
+39.4 +17.0 27 +42 +57 опасность
перегрева
996.0 957.2
12 15.07 З 1 20 км ясно +38.8 +22.1 38 +47 +53 опасность
перегрева
994.7 956.5
15 15.07 ЮВ 1 20 км ясно +32.8 +19.5 46 +39 +39 очень
душно
995.4 955.8 +41.5
18 15.07 В 1 н/о ясно +30.0 +20.4 56 +37 +37 очень
душно
996.3 956.4 +41.5
21 15.07 ЮВ 1 н/о ясно +27.8 +19.0 59 +33 +33 очень
душно
997.4 957.1
00 16.07 С 1 н/о ясно +24.8 +17.6 64 +29 +29 душно 998.7 958.8
03 16.07 СВ 1 20 км ясно +27.8 +20.2 63 +34 +41 очень
душно
998.0 957.7 +21.3
06 16.07 ЮВ 1 20 км ясно +37.2 +14.3 26 +38 +60 опасность
солнечного
удара
997.5 958.4 +21.3
09 16.07 З 1 20 км 3/3 600 м
[Cb calv]
+38.6 +17.1 28 +41 +56 опасность
перегрева
996.4 957.5
12 16.07 ЮЗ 1 20 км ясно +38.6 +24.1 44 +50 +56 опасность
перегрева
995.0 956.8
15 16.07 В 1 20 км ясно +33.5 +22.1 51 +42 +42 опасность
перегрева
995.9 956.4 +40.1
18 16.07 З 1 н/о ясно +29.3 +19.2 55 +35 +35 очень
душно
996.7 956.6 +40.1
21 16.07 ЮВ 1 н/о ясно +26.8 +18.7 61 +32 +32 очень
душно
997.6 957.2
00 17.07 В 1 20 км ясно +23.4 +16.7 66 +28 +28 душно 999.1 959.1
03 17.07 З 1 20 км ясно +28.0 +20.3 63 +34 +41 очень
душно
999.9 959.5 +21.1
06 17.07 З 1 20 км ясно +37.0 +16.2 29 +39 +61 опасность
солнечного
удара
999.0 959.8 +21.1
09 17.07 З 1 20 км ясно +40.0 +16.6 26 +42 +63 опасность
перегрева
997.5 958.8
12 17.07 З 1 20 км ясно +39.4 +22.2 37 +47 +53 опасность
перегрева
996.3 958.2
15 17.07 СЗ 1 20 км ясно +34.0 +20.8 46 +41 +41 опасность
перегрева
996.4 957.0 +41.5
18 17.07 ЮВ 1 н/о ясно +30.2 +19.5 53 +36 +36 очень
душно
997.5 957.5 +41.5
21 17.07 В 1 20 км ясно +26.5 +17.6 58 +31 +31 душно 998.5 958.0
00 18.07 СВ 1 20 км ясно +22.9 +15.2 62 +27 +27 душно 999.5 959.2
03 18.07 ЮЗ 1 20 км ясно +28.2 +20.0 61 +34 +41 очень
душно
999.0 958.7 +21.3
06 18.07 З 1 20 км ясно +36.0 +20.8 41 +43 +64 опасность
перегрева
998.3 959.0 +11.3
09 18.07 З 1 20 км ясно +40.6 +15.1 22 +41 +62 опасность
перегрева
997.1 958.4
12 18.07 З 1 20 км ясно +39.4 +22.2 37 +47 +53 опасность
перегрева
995.6 957.5
15 18.07 СЗ 1 20 км ясно +33.8 +21.1 48 +41 +41 опасность
перегрева
996.8 957.3 +41.9
18 18.07 С 1 н/о ясно +30.4 +20.3 55 +37 +37 очень
душно
997.8 957.8 +41.9
21 18.07 Ю 1 н/о ясно +27.1 +18.7 60 +32 +32 очень
душно
998.6 958.2
00 19.07 ЮЗ 1 20 км ясно +22.6 +16.2 67 +27 +27 душно 999.9 959.6
03 19.07 ЮЗ 1 20 км ясно +27.0 +20.0 66 +33 +40 очень
душно
1000.0 959.5 +21.4
06 19.07 З 1 20 км ясно +36.8 +19.2 36 +42 +63 опасность
перегрева
998.1 958.9 +21.4
09 19.07 З 1 20 км ясно +39.6 +19.4 31 +44 +65 опасность
перегрева
998.0 959.2
12 19.07 З 1 20 км ясно +39.6 +22.2 37 +48 +54 опасность
перегрева
997.3 959.1
15 19.07 Ю 1 20 км ясно +33.0 +18.4 42 +38 +38 очень
душно
997.4 957.8 +40.6
18 19.07 штиль 0 н/о ясно +29.9 +19.4 53 +36 +36 очень
душно
998.1 958.1 +40.6

 

Местоположение метеостанции Пьяндж (Таджикистан): широта 37.23 долгота 69.08 высота над уровнем моря 363 м.

В архиве по умолчанию представлена погода в Пьяндже за последнюю неделю. Архивные данные за месяц целиком и за предыдущие месяцы, начиная с января 2011 года, Вы можете получить, выбрав интересующий диапазон дат из раскрывающегося списка и нажав кнопку "Ввод!".


*Определитесь, кто Вы:
робот инопланетянин человек

Внимание! Время в таблицах - всемирное. Для получения местного времени необходимо прибавить поправку, которая равна 5 ч.

Смотрите также архив погоды в соседних городах и на ближайших метеорологических станциях:

Погода в Пархаре (Таджикистан) (38 км)
Погода в Кундузе (Афганистан) (64 км)
Погода в Хамадони (Таджикистан) (69 км)
Погода в Курган-Тюбе (Таджикистан) (71 км)
Погода в Исанбай (Таджикистан) (91 км)
Погода в Ганжине (Таджикистан) (92 км)
Погода в Кулябе (Таджикистан) (98 км)
Погода в Дангаре (Таджикистан) (99 км)
Погода в Шурчи (Сухрандарьинская область, Узбекистан) (142 км)
Погода в Санглоке (Таджикистан) (148 км)

Пояснения к столбцам:

Ветер - указаны скорость ветра в м/с - средняя за 10 мин, порывы в срок и между сроками (в фигурных скобках) и направление, откуда дует ветер: С - северный, СВ - северо-восточный, В - восточный, ЮВ - юго-восточный, Ю - южный, ЮЗ - юго-западный, З - западный, СЗ - северо-западный.
Видимость - горизонтальная дальность видимости в метрах или километрах. При видимости от 1 до 10 км при отсутствии осадков обычно наблюдается дымка, при ухудшении видимости до 1 км и менее - туман. В сухую погоду видимость может ухудшаться дымом, пылью или мглою.
Явления - указаны атмосферные явления, наблюдавшиеся в срок или в последний час перед сроком; фигурными скобками обозначены явления, наблюдавшиеся между сроками (за 1-3 часа до срока); квадратными скобками обозначены град или гололедные отложения с указанием их диаметра в мм.
Облачность - указаны через наклонную черту общая и нижняя облачность в баллах и высота нижней границы облаков в метрах; квадратными скобками обозначены формы облаков: Ci - перистые, Cs - перисто-слоистые, Cc - перисто-кучевые, Ac - высококучевые, As - высокослоистые, Sc - слоисто-кучевые, Ns - слоисто-дождевые, Cu - кучевые, Cb - кучево-дождевые. Подробнее классификацию облаков см. в Атласе облаков (PDF).
T - Температура воздуха - температура, измеренная на высоте 2 м над землей.
Td - Температура точки росы - температура, при понижении до которой содержащийся в воздухе водяной пар достигнет насыщения.
f - Относительная влажность воздуха - влажноcть воздуха, измеренная на высоте 2 м над землей.
Te - Эффективная температура - температура, которую ощущает одетый по сезону человек в тени. Характеристика душности погоды. При расчете учитывается влияние влажности воздуха и скорости ветра на теплоощущения человека.
Tes - Эффективная температура на солнце - температура, которую ощущает человек, с поправкой на солнечный нагрев. Характеристика знойности погоды. Зависит от высоты солнца над горизонтом, облачности и скорости ветра. Ночью, в пасмурную погоду, а также при ветре 12 м/с и более поправка равна нулю.
P - Атмосферное давление - приведенное к уровню моря атмосферное давление.
Po - Атмосферное давление - измеренное на уровне метеостанции атмосферное давление.
Tmin - Минимальная температура - минимум температуры воздуха на высоте 2 м над землей.
Tmax - Максимальная температура - максимум температуры воздуха на высоте 2 м над землей.
R - Количество осадков - Количество выпавших осадков за период времени, мм. При наведении курсора мыши на число - период времени, за который выпало указанное количество осадков.
R24 - Количество осадков - Количество выпавших осадков за 24 часа, мм.
S - Снежный покров - Высота снежного покрова, см. При наведении курсора мыши на число - состояние снежного покрова и степень покрытия местности в баллах.